Location: Newark
(37.3333°N, 6.0167°W)
Time: 14:01:07
(UTC+00:00)

OTV 5 (USA 277) - Visible Passes

Search period start: 16 October 2019 00:00
Search period end: 26 October 2019 00:00
Orbit: 310 x 324 km, 54.5° (Epoch: 08 October)

Date Brightness Start Highest point End Pass type
(mag) Time Alt. Az. Time Alt. Az. Time Alt. Az.
17 Oct ? 05:54:16 10° NNW 05:56:20 19° NE 05:58:24 10° E visible
19 Oct ? 04:50:31 13° NNE 04:51:03 13° NNE 04:52:28 10° ENE visible
20 Oct ? 05:05:08 25° N 05:05:49 29° NE 05:08:15 10° ESE visible
21 Oct ? 05:19:54 54° NW 05:20:25 85° SW 05:23:08 10° SE visible
22 Oct ? 05:34:48 23° SW 05:34:52 23° SW 05:37:07 10° S visible
